This demonstration page uses our WeatherBlox Daily Observations layout. Learn more.

Left ArrowRight Arrow

Hourly Observations for May 30, 2016

Temp ( °F °C ) Dew Point ( °F °C ) Humidity (%) Winds ( mph kmh ) Pressure ( in mb ) Visibility ( mi km ) Precip ( " mm )
12:51 am 00:51 Mostly Clear 73 22.8 15 -9.4 11 11 NW 9 15 29.80 1009 10 16 0.00 0.00
1:51 am 01:51 Clear 74 23.3 16 -8.9 11 11 NNW 12 19 29.78 1009 10 16 0.00 0.00
2:51 am 02:51 Clear 71 21.7 16 -8.9 12 12 NNW 7 11 29.78 1009 10 16 0.00 0.00
3:51 am 03:51 Mostly Clear 68 20 16 -8.9 13 13 undefined N/A 29.80 1009 10 16 0.00 0.00
4:51 am 04:51 Mostly Cloudy 63 17.2 17 -8.3 17 17 ENE 5 7 29.83 1010 10 16 0.00 0.00
5:51 am 05:51 Mostly Cloudy 65 18.3 17 -8.3 16 16 SSE 7 11 29.84 1011 10 16 0.00 0.00
6:51 am 06:51 Mostly Sunny 72 22.2 18 -7.8 13 13 Calm 29.84 1011 10 16 0.00 0.00
7:51 am 07:51 Mostly Sunny 77 25 19 -7.2 11 11 E 5 7 29.84 1010 10 16 0.00 0.00
8:51 am 08:51 Sunny 80 26.7 19 -7.2 10 10 VRB 5 7 29.83 1010 10 16 0.00 0.00
9:51 am 09:51 Sunny 85 29.4 21 -6.1 9 9 SSW 6 9 29.80 1009 10 16 0.00 0.00
10:51 am 10:51 Sunny 86 30 34 1.1 15 15 SSE 9 15 29.79 1009 10 16 0.00 0.00
11:51 am 11:51 Sunny 87 30.6 36 2.2 16 16 VRB 5 7 29.77 1008 10 16 0.00 0.00
12:51 pm 12:51 Partly Cloudy 88 31.1 36 2.2 16 16 WNW 14 22 29.73 1007 10 16 0.00 0.00
1:51 pm 13:51 Sunny 92 33.3 33 0.6 12 12 W 10 17 29.70 1006 10 16 0.00 0.00
2:51 pm 14:51 Mostly Sunny 93 33.9 32 0 11 11 WSW 13 20 29.67 1005 10 16 0.00 0.00
3:51 pm 15:51 Sunny 91 32.8 30 -1.1 11 11 WSW 9 15 29.65 1004 10 16 0.00 0.00
4:51 pm 16:51 Sunny 93 33.9 28 -2.2 10 10 W 10 17 29.64 1004 10 16 0.00 0.00
5:51 pm 17:51 Sunny 91 32.8 25 -3.9 9 9 WNW 16 26 29.64 1004 10 16 0.00 0.00
6:51 pm 18:51 Sunny 87 30.6 19 -7.2 8 8 WNW 13 20 29.65 1004 10 16 0.00 0.00
7:51 pm 19:51 Clear 84 28.9 23 -5 10 10 NW 17 28 29.66 1005 10 16 0.00 0.00
8:51 pm 20:51 Clear 79 26.1 20 -6.7 11 11 NW 10 17 29.69 1005 10 16 0.00 0.00
9:51 pm 21:51 Clear 75 23.9 20 -6.7 12 12 NNW 9 15 29.71 1006 10 16 0.00 0.00
10:51 pm 22:51 Clear 75 23.9 19 -7.2 12 12 NW 10 17 29.70 1006 10 16 0.00 0.00
11:51 pm 23:51 Clear 72 22.2 19 -7.2 13 13 WNW 10 17 29.70 1006 10 16 0.00 0.00

Powered by AerisWeather